Content
SEND FEEDBACK

Daily
Averages
Monthly
Summary
Switzerland

VERSOIX, SWITZERLAND


Home > Europe > Switzerland
Elevation: 1365 feet     Latitude: 46 12N     Longitude: 006 12E

WEATHER
 
SELECT A DAY
Number of Records: 305,866;   Date Range: 7/1/96 - 8/12/14
 
SHARE

PRINT THIS DATA

[ ← Previous Day ]
WEATHER ALMANAC - JUNE 14, 2013
[ Next Day → ]
[ °C ]   °F
Weather ElementAverageHighLow
Temperature62.9 °F71.6 °F (5:20 pm)57 °F (8:00 am)
Dewpoint55.3 °F59 °F (12:20 am)51 °F (9:00 am)
Humidity75.9 %100 % (12:20 am)49 % (6:00 pm)
Barometer30.10 in30.21 in (12:20 am)30.00 in (6:00 pm)
Wind Speed5.2 mph12.7 mph (8:20 am)
Weather ElementAverage
Visibility7.2 mi
Wind DirectionENE (64.5 °)

Weather ElementTotal
Precipitation---
Heating Degree Days0.7 (Base 65)
Growing Degree Days14.3 (Base 50)
Averaged from 65 records on June 14, 2013
WEATHER CONDITIONS BREAKOUT
WIND DIRECTION BREAKOUT
WEATHER BY HOUR - JUNE 14, 2013
[ °C ]   °F
Local TimeTemperatureDewpointHumidityBarometerVisibilityWind DirectionWind SpeedGust SpeedPrecipitationEventsConditions
12:20 AM59.0 °F59.0 °F100 %30.21 in6.2 miVariable2.3 mphRainLight Rain Showers
12:50 AM59.0 °F57.2 °F94 %30.21 in6.2 miWSW (250°)4.6 mphRainLight Rain Showers
1:00 AM59.0 °F56.0 °F85 %30.20 inWest (260°)3.5 mph
1:20 AM57.2 °F57.2 °F100 %30.21 in6.2 miWest (260°)4.6 mphMostly Cloudy
1:50 AM57.2 °F57.2 °F100 %30.21 in6.2 miWSW (250°)3.5 mphMostly Cloudy
2:00 AM58.0 °F56.0 °F90 %30.20 in19.0 miWest (260°)3.5 mphPartly Cloudy
2:20 AM57.2 °F57.2 °F100 %30.18 in6.2 miVariable2.3 mphMostly Cloudy
2:50 AM57.2 °F57.2 °F100 %30.18 in6.2 miVariable2.3 mphMostly Cloudy
3:00 AM59.0 °F56.0 °F86 %30.17 inNW (320°)2.3 mph
3:50 AM57.2 °F57.2 °F100 %30.15 in6.2 miVariable1.2 mphMostly Cloudy
4:00 AM59.0 °F56.0 °F87 %30.15 inNW (310°)1.2 mph
4:20 AM57.2 °F57.2 °F100 %30.15 in6.2 miCalmMostly Cloudy
4:50 AM57.2 °F57.2 °F100 %30.15 in6.2 miVariable2.3 mphMostly Cloudy
5:20 AM57.2 °F57.2 °F100 %30.15 in6.2 miVariable3.5 mphMostly Cloudy
5:50 AM57.2 °F57.2 °F100 %30.15 in6.2 miNNE (30°)2.3 mphMostly Cloudy
6:00 AM58.0 °F56.0 °F90 %30.15 inNE (40°)3.5 mph
6:20 AM57.2 °F57.2 °F100 %30.15 in6.2 miNE (50°)5.8 mphMostly Cloudy
6:50 AM59.0 °F57.2 °F94 %30.15 in6.2 miNNE (30°)5.8 mphMostly Cloudy
7:00 AM58.0 °F55.0 °F86 %30.14 inNNE (20°)5.8 mph
7:20 AM57.2 °F53.6 °F88 %30.15 in6.2 miNNE (30°)5.8 mphMostly Cloudy
7:50 AM57.2 °F53.6 °F88 %30.15 in6.2 miNE (50°)9.2 mphMostly Cloudy
8:00 AM57.0 °F52.0 °F78 %30.14 in25.0 miNE (40°)10.4 mphOvercast
8:20 AM57.2 °F53.6 °F88 %30.15 in6.2 miNE (50°)12.7 mphMostly Cloudy
8:50 AM57.2 °F53.6 °F88 %30.15 in6.2 miNE (40°)10.4 mphMostly Cloudy
9:00 AM58.0 °F51.0 °F70 %30.14 inNE (40°)9.2 mph
9:20 AM59.0 °F51.8 °F77 %30.12 in6.2 miNE (50°)8.1 mphMostly Cloudy
9:50 AM59.0 °F51.8 °F77 %30.12 in6.2 miNE (50°)10.4 mphMostly Cloudy
10:00 AM59.0 °F51.0 °F69 %30.13 inNE (40°)10.4 mph
10:20 AM60.8 °F51.8 °F72 %30.12 in6.2 miNE (40°)9.2 mphMostly Cloudy
10:50 AM60.8 °F51.8 °F72 %30.12 in6.2 miNE (40°)9.2 mphMostly Cloudy
11:20 AM60.8 °F51.8 °F72 %30.12 in6.2 miNE (50°)9.2 mphMostly Cloudy
11:50 AM62.6 °F51.8 °F68 %30.09 in6.2 miNE (40°)9.2 mphMostly Cloudy
12:00 PM63.0 °F52.0 °F58 %30.09 inNE (50°)8.1 mph
12:20 PM64.4 °F53.6 °F68 %30.09 in6.2 miNE (40°)8.1 mphMostly Cloudy
12:50 PM66.2 °F53.6 °F64 %30.09 in6.2 miENE (60°)8.1 mphMostly Cloudy
1:00 PM64.0 °F52.0 °F56 %30.07 inENE (60°)6.9 mph
1:20 PM66.2 °F53.6 °F64 %30.09 in6.2 miNE (40°)6.9 mphMostly Cloudy
1:50 PM66.2 °F55.4 °F68 %30.09 in6.2 miENE (60°)6.9 mphMostly Cloudy
2:00 PM65.0 °F54.0 °F58 %30.05 in25.0 miENE (60°)6.9 mphMostly Cloudy
2:20 PM66.2 °F53.6 °F64 %30.06 in6.2 miENE (60°)8.1 mphMostly Cloudy
2:50 PM68.0 °F55.4 °F64 %30.06 in6.2 miNNE (20°)3.5 mphMostly Cloudy
3:00 PM65.0 °F53.0 °F56 %30.04 inNE (50°)4.6 mph
3:20 PM68.0 °F55.4 °F64 %30.06 in6.2 miEast (100°)5.8 mphMostly Cloudy
3:50 PM68.0 °F55.4 °F64 %30.06 in6.2 miVariable3.5 mphMostly Cloudy
4:00 PM68.0 °F54.0 °F52 %30.03 inNorth (350°)3.5 mph
4:20 PM69.8 °F57.2 °F64 %30.06 in6.2 miENE (60°)4.6 mphMostly Cloudy
4:50 PM69.8 °F55.4 °F60 %30.04 in6.2 miVariable3.5 mphMostly Cloudy
5:20 PM71.6 °F57.2 °F60 %30.04 in6.2 miVariable3.5 mphScattered Clouds
5:50 PM71.6 °F57.2 °F60 %30.04 in6.2 miEast (80°)5.8 mphPartly Cloudy
6:00 PM69.0 °F54.0 °F49 %30.00 inEast (80°)5.8 mph
6:20 PM71.6 °F55.4 °F57 %30.04 in6.2 miEast (80°)4.6 mphPartly Cloudy
6:50 PM71.6 °F55.4 °F57 %30.04 in6.2 miENE (70°)5.8 mphScattered Clouds
7:00 PM71.0 °F56.0 °F49 %30.00 inEast (80°)4.6 mph
7:20 PM71.6 °F55.4 °F57 %30.04 in6.2 miVariable3.5 mphScattered Clouds
7:50 PM71.6 °F57.2 °F60 %30.04 in6.2 miVariable1.2 mphScattered Clouds
8:20 PM69.8 °F59.0 °F68 %30.04 in6.2 miNNE (20°)2.3 mphScattered Clouds
8:50 PM68.0 °F59.0 °F73 %30.04 in6.2 miNNE (30°)2.3 mphMostly Cloudy
9:00 PM66.0 °F58.0 °F68 %30.01 inNE (40°)3.5 mph
9:20 PM66.2 °F57.2 °F73 %30.04 in6.2 miNE (50°)4.6 mphMostly Cloudy
9:50 PM66.2 °F57.2 °F73 %30.04 in6.2 miNorth (10°)3.5 mphMostly Cloudy
10:00 PM65.0 °F56.0 °F66 %30.03 inNorth3.5 mph
10:20 PM64.4 °F57.2 °F77 %30.06 in6.2 miVariable3.5 mphMostly Cloudy
10:50 PM62.6 °F55.4 °F77 %30.06 in6.2 miVariable3.5 mphScattered Clouds
11:20 PM62.6 °F57.2 °F82 %30.06 in6.2 miVariable2.3 mphScattered Clouds
11:50 PM62.6 °F57.2 °F82 %30.06 in6.2 miCalmScattered Clouds
Hourly data recorded from LSGG, located miles away from Versoix, Switzerland







STORIES FROM OUR PARTNERS